{"data":{"norad_id":45369,"epoch":"2026-05-25T03:39:11.985984Z","epoch_age_seconds":55083,"freshness":"FRESH","line1":"1 45369U 20019K   26145.15222206  .00088984  00000+0  10146-2 0  9997","line2":"2 45369  53.0427 142.6387 0006733   1.2796 358.8233 15.61491285341838","mean_motion":15.61491285,"eccentricity":0.0006733,"inclination_deg":53.0427,"raan_deg":142.6387,"arg_perigee_deg":1.2796,"mean_anomaly_deg":358.8233,"bstar":0.0010146,"rev_number":34183,"period_min":92.219534865992,"perigee_km":378.79615524158,"apogee_km":387.9011718361,"semimajor_km":6761.4856635388,"source":"CELESTRAK","updated_at":"2026-05-25T13:38:16.387432Z"}}